K0JSC-13 Weather Reports


time (UTC)temp
C
wind
direction
speed
KPH
gust
KPH
rain 1hr
cm
rain 24hr
cm
rain mn
cm
humidity
%
barometer
mb
20260505112703 8 138 1.6 6.4 0.00 0.00 0.00 75 986.2
20260505111803 8 130 0.0 4.8 0.00 0.00 0.00 75 986.0
20260505111118 8 132 1.6 4.8 0.00 0.00 0.00 75 986.0
20260505101803 9 129 3.2 8.0 0.00 0.00 0.00 71 986.1
20260505101118 10 138 3.2 8.0 0.00 0.00 0.00 71 986.2
20260505100004 10 144 3.2 8.0 0.00 0.00 0.00 69 986.1
20260505095403 10 141 3.2 8.0 0.00 0.00 0.00 67 986.2
20260505094503 10 135 6.4 11.3 0.00 0.00 0.00 66 986.0
20260505093817 10 136 3.2 11.3 0.00 0.00 0.00 65 986.1
20260505092703 10 226 1.6 6.4 0.00 0.00 0.00 64 986.3
20260505091803 10 232 1.6 6.4 0.00 0.00 0.00 66 986.2
20260505090903 10 246 0.0 4.8 0.00 0.00 0.00 66 986.1
20260505090005 11 219 0.0 3.2 0.00 0.00 0.00 66 986.1
20260505085403 11 233 0.0 4.8 0.00 0.00 0.00 65 986.0
20260505084503 11 232 0.0 4.8 0.00 0.00 0.00 64 986.1
20260505083603 11 214 0.0 6.4 0.00 0.00 0.00 63 985.9
20260505082706 11 233 0.0 4.8 0.00 0.00 0.00 63 986.0
20260505081803 11 245 0.0 4.8 0.00 0.00 0.00 63 986.0
20260505080903 11 245 0.0 4.8 0.00 0.00 0.00 63 986.0
20260505080218 11 218 0.0 4.8 0.00 0.00 0.00 63 985.9
20260505075403 11 228 0.0 4.8 0.00 0.00 0.00 62 985.9
20260505074503 12 243 1.6 12.9 0.00 0.00 0.00 61 985.8
20260505073604 12 235 0.0 4.8 0.00 0.00 0.00 59 985.8
20260505072918 12 235 0.0 4.8 0.00 0.00 0.00 58 986.0
20260505071803 12 249 0.0 4.8 0.00 0.00 0.00 57 985.9
20260505070903 12 300 0.0 4.8 0.00 0.00 0.00 57 985.9
20260505070003 12 286 0.0 6.4 0.00 0.00 0.00 58 985.7
20260505065617 12 288 0.0 6.4 0.00 0.00 0.00 58 985.8
20260505064717 12 123 0.0 1.6 0.00 0.00 0.00 60 985.5
20260505063604 12 114 0.0 1.6 0.00 0.00 0.00 59 985.6
20260505062917 12 108 0.0 1.6 0.00 0.00 0.00 59 985.4
20260505061803 12 107 0.0 1.6 0.00 0.00 0.00 59 985.7
20260505061118 12 107 0.0 1.6 0.00 0.00 0.00 58 985.6
20260505060005 12 338 0.0 1.6 0.00 0.00 0.00 58 985.5
20260505055403 12 197 0.0 1.6 0.00 0.00 0.00 59 985.7
20260505054504 13 181 0.0 4.8 0.00 0.00 0.00 58 985.6
20260505053603 13 140 0.0 1.6 0.00 0.00 0.00 57 985.7
20260505052917 13 159 0.0 3.2 0.00 0.00 0.00 57 985.6
20260505051804 13 212 0.0 4.8 0.00 0.00 0.00 58 985.6
20260505050903 13 206 0.0 3.2 0.00 0.00 0.00 59 985.6
20260505050217 13 212 1.6 4.8 0.00 0.00 0.00 58 985.5
20260505040904 14 116 0.0 1.6 0.00 0.00 0.00 48 984.8
20260505040004 15 119 0.0 1.6 0.00 0.00 0.00 46 984.6
20260505035403 15 92 0.0 1.6 0.00 0.00 0.00 46 984.4
20260505034503 15 64 0.0 6.4 0.00 0.00 0.00 46 984.3
20260505033603 15 76 4.8 12.9 0.00 0.00 0.00 48 984.3
20260505032703 15 86 3.2 12.9 0.00 0.00 0.00 48 983.9
20260505031803 15 152 3.2 12.9 0.00 0.00 0.00 45 983.8
20260505030903 15 223 3.2 16.1 0.00 0.00 0.00 43 983.7
20260505030004 16 194 1.6 4.8 0.00 0.00 0.00 42 983.1
20260505025618 16 166 0.0 4.8 0.00 0.00 0.00 42 982.8
20260505024503 16 96 4.8 16.1 0.00 0.00 0.00 41 982.0
20260505023603 16 89 9.7 25.7 0.00 0.00 0.00 42 981.6
20260505022703 16 95 4.8 16.1 0.00 0.00 0.00 40 981.5
20260505021803 17 95 6.4 19.3 0.00 0.00 0.00 39 981.2
20260505020903 18 95 8.0 24.1 0.00 0.00 0.00 33 981.2
20260505020004 18 87 11.3 20.9 0.00 0.00 0.00 31 980.9
20260505015403 19 86 11.3 22.5 0.00 0.00 0.00 32 980.7
20260505014503 19 86 11.3 22.5 0.00 0.00 0.00 30 980.7
20260505013603 19 86 9.7 17.7 0.00 0.00 0.00 31 980.5
20260505012703 20 86 12.9 20.9 0.00 0.00 0.00 31 980.2
20260505011803 20 88 11.3 20.9 0.00 0.00 0.00 32 980.2
20260505010903 20 85 14.5 22.5 0.00 0.00 0.00 29 980.2
20260505010004 20 88 9.7 20.9 0.00 0.00 0.00 30 980.1
20260505005403 20 85 14.5 25.7 0.00 0.00 0.00 29 980.1
20260505004503 20 82 12.9 29.0 0.00 0.00 0.00 28 980.1
20260505003603 21 80 12.9 24.1 0.00 0.00 0.00 28 980.2
20260505002917 21 80 11.3 20.9 0.00 0.00 0.00 27 980.1
20260505001803 21 85 16.1 24.1 0.00 0.00 0.00 28 980.0
20260505000903 21 86 12.9 24.1 0.00 0.00 0.00 27 980.2
20260505000003 21 89 11.3 24.1 0.00 0.00 0.00 27 980.0
20260504235403 21 92 9.7 17.7 0.00 0.00 0.00 27 980.0
20260504234504 21 90 12.9 27.4 0.00 0.00 0.00 26 980.0
20260504233603 21 85 11.3 22.5 0.00 0.00 0.00 26 979.9
20260504232703 21 84 11.3 20.9 0.00 0.00 0.00 28 979.9
20260504231803 22 85 9.7 22.5 0.00 0.00 0.00 26 979.9
20260504231118 22 85 8.0 20.9 0.00 0.00 0.00 25 979.8
20260504230003 22 85 12.9 20.9 0.00 0.00 0.00 24 979.6
20260504225403 22 82 11.3 20.9 0.00 0.00 0.00 26 979.6
20260504224503 22 73 6.4 25.7 0.00 0.00 0.00 23 979.7
20260504223603 22 72 11.3 20.9 0.00 0.00 0.00 23 979.6
20260504222704 22 78 11.3 20.9 0.00 0.00 0.00 22 979.6
20260504221803 22 82 14.5 24.1 0.00 0.00 0.00 22 979.6
20260504220903 22 80 16.1 29.0 0.00 0.00 0.00 24 979.9
20260504220004 22 77 14.5 32.2 0.00 0.00 0.00 23 980.1
20260504215403 22 73 12.9 32.2 0.00 0.00 0.00 22 980.1
20260504214503 22 73 12.9 24.1 0.00 0.00 0.00 22 980.2
20260504213603 22 79 14.5 29.0 0.00 0.00 0.00 24 980.5
20260504212918 22 76 9.7 29.0 0.00 0.00 0.00 25 980.4
20260504211804 22 72 12.9 30.6 0.00 0.00 0.00 25 980.5
20260504210903 23 72 11.3 30.6 0.00 0.00 0.00 26 980.9
20260504210004 22 72 8.0 20.9 0.00 0.00 0.00 26 980.7
20260504205403 22 70 9.7 22.5 0.00 0.00 0.00 24 980.9
20260504204503 22 77 12.9 30.6 0.00 0.00 0.00 25 981.0
20260504203603 22 77 16.1 38.6 0.00 0.00 0.00 24 981.2
20260504202704 22 74 16.1 27.4 0.00 0.00 0.00 28 981.3
20260504201803 22 71 12.9 27.4 0.00 0.00 0.00 28 981.4
20260504201116 22 76 11.3 27.4 0.00 0.00 0.00 26 981.5
20260504200003 22 71 14.5 30.6 0.00 0.00 0.00 26 981.8
20260504195617 22 84 14.5 32.2 0.00 0.00 0.00 27 981.8
20260504194503 22 110 16.1 33.8 0.00 0.00 0.00 27 981.8
20260504193603 22 111 19.3 33.8 0.00 0.00 0.00 26 982.0
20260504192703 21 120 19.3 30.6 0.00 0.00 0.00 26 982.1
20260504191803 21 117 19.3 38.6 0.00 0.00 0.00 29 982.2
20260504191118 21 109 22.5 40.2 0.00 0.00 0.00 28 982.2
20260504190004 22 81 20.9 33.8 0.00 0.00 0.00 23 981.8
20260504185403 22 81 4.8 33.8 0.00 0.00 0.00 25 981.7
20260504184503 22 0 4.8 0.0 0.00 0.00 0.00 19 982.0
20260504183603 22 0 4.8 0.0 0.00 0.00 0.00 19 982.2
20260504182703 22 0 4.8 0.0 0.00 0.00 0.00 19 982.4
20260504182016 22 0 4.8 0.0 0.00 0.00 0.00 19 982.5
20260504180904 22 0 4.8 0.0 0.00 0.00 0.00 19 982.6
20260504180004 22 36 4.8 3.2 0.00 0.00 0.00 19 982.9
20260504175617 22 51 4.8 8.0 0.00 0.00 0.00 19 982.9
20260504174503 22 79 9.7 22.5 0.00 0.00 0.00 20 982.9
20260504173603 22 259 16.1 29.0 0.00 0.00 0.00 20 983.2
20260504172703 22 311 12.9 24.1 0.00 0.00 0.00 23 983.3
20260504172018 22 327 9.7 25.7 0.00 0.00 0.00 22 983.5
20260504170903 22 306 8.0 24.1 0.00 0.00 0.00 21 984.0
20260504151116 17 305 14.5 25.7 0.00 0.00 0.00 34 986.2
20260504140903 17 295 14.5 30.6 0.00 0.00 0.00 35 986.5